Home > Weather > Petah Tikva > Past weeks

Flag for Israel Past Weather in Petah Tikva, Israel — Yesterday and Last 2 Weeks

Now
82 °F

Passing clouds.


Feels Like: 87 °F
Forecast: 80 / 88 °F
Wind: 3 mph from North

Location: Ben Gurion International Airport

Current Time: Aug 27, 2016 at 9:39:53 AM

Latest Report: Aug 27, 2016 at 8:50 AM


Visibility: N/A

Pressure: 29.92 "Hg

Humidity: 70%

Dew Point: 72 °F

Location of Petah TikvaLocation

Past Weather in Petah Tikva — Graph

°F

Petah Tikva Temperature Yesterday

Maximum temperature yesterday: 88 °F (at 10:50 AM)
Minimum temperature yesterday: 77 °F (at 4:20 AM)
Average temperature yesterday: 83 °F

High & Low Weather Summary for the Past Weeks

 TemperatureHumidityPressure
High91 °F (Aug 14, 12:50 PM)84% (Aug 15, 3:50 AM)29.92 "Hg (Aug 15, 3:50 AM)
Low75 °F (Aug 13, 4:50 AM)46% (Aug 16, 11:20 AM)29.71 "Hg (Aug 17, 3:50 PM)
Average83 °F66%29.80 "Hg
* Reported Aug 12 8:20 AM — Aug 27 8:20 AM, Petah Tikva, Weather by CustomWeather, © 2016

Note: Actual official high and low records may vary slightly from our data, if they occured in-between our weather recording intervals... More about our weather records

Advertising

Petah Tikva Weather History for the Previous 24 Hours

Scroll right to see more
 ConditionsComfort  
Time TempWeatherWind HumidityBarometerVisibility
8:20 AM
Sat, Aug 27
81 °FScattered clouds.5 mph70%29.92 "HgN/A
7:50 AM79 °FPassing clouds.5 mph74%29.92 "HgN/A
7:20 AM79 °FPassing clouds.2 mph74%29.92 "HgN/A
6:50 AM77 °FPassing clouds.2 mph79%29.92 "HgN/A
6:20 AM77 °FPassing clouds.1 mph79%29.89 "HgN/A
5:50 AM77 °FPassing clouds.2 mph79%29.89 "HgN/A
5:20 AM77 °FPassing clouds.1 mph79%29.89 "HgN/A
4:50 AM77 °FPassing clouds.1 mph79%29.89 "HgN/A
4:20 AM79 °FPassing clouds.1 mph74%29.89 "HgN/A
3:50 AM79 °FPassing clouds.2 mph74%29.89 "HgN/A
3:20 AM81 °FPassing clouds.3 mph70%29.89 "HgN/A
2:50 AM81 °FPassing clouds.2 mph70%29.89 "HgN/A
2:20 AM81 °FPassing clouds.2 mph70%29.89 "HgN/A
1:50 AM81 °FPassing clouds.2 mph70%29.89 "HgN/A
1:20 AM81 °FPassing clouds.2 mph74%29.89 "HgN/A
12:50 AM81 °FPassing clouds.2 mph74%29.89 "HgN/A
12:20 AM81 °FPassing clouds.2 mph74%29.89 "HgN/A
11:50 PM
Fri, Aug 26
81 °FPassing clouds.5 mph74%29.89 "HgN/A
11:20 PM81 °FPassing clouds.3 mph70%29.89 "HgN/A
10:50 PM81 °FPassing clouds.3 mph70%29.89 "HgN/A
10:20 PM82 °FPassing clouds.3 mph70%29.89 "HgN/A
9:50 PM82 °FPassing clouds.3 mph70%29.89 "HgN/A
9:20 PM82 °FPassing clouds.3 mph70%29.89 "HgN/A
8:50 PM82 °FPassing clouds.3 mph70%29.86 "HgN/A
8:20 PM82 °FPassing clouds.6 mph70%29.86 "HgN/A
7:50 PM82 °FPassing clouds.8 mph70%29.86 "HgN/A
7:20 PM84 °FPassing clouds.10 mph66%29.86 "HgN/A
6:50 PM84 °FPassing clouds.10 mph66%29.86 "HgN/A
6:20 PM84 °FPassing clouds.10 mph62%29.86 "HgN/A
5:50 PM86 °FPassing clouds.13 mph59%29.86 "HgN/A
5:20 PM86 °FPassing clouds.13 mph59%29.83 "HgN/A
4:50 PM88 °FPassing clouds.13 mph52%29.83 "HgN/A
4:20 PM88 °FPassing clouds.12 mph55%29.83 "HgN/A
3:50 PM88 °FPassing clouds.10 mph55%29.83 "HgN/A
3:20 PM88 °FPassing clouds.10 mph55%29.83 "HgN/A
2:50 PM88 °FPassing clouds.12 mph55%29.83 "HgN/A
2:20 PM88 °FPassing clouds.12 mph55%29.83 "HgN/A
1:50 PM88 °FPassing clouds.12 mph59%29.83 "HgN/A
1:20 PM88 °FPassing clouds.12 mph59%29.83 "HgN/A
12:50 PM88 °FPassing clouds.10 mph59%29.83 "HgN/A
12:20 PM88 °FPassing clouds.10 mph59%29.83 "HgN/A
11:50 AM88 °FPassing clouds.7 mph55%29.83 "HgN/A
11:20 AM88 °FPassing clouds.7 mph55%29.86 "HgN/A
10:50 AM88 °FScattered clouds.6 mph55%29.86 "HgN/A
10:20 AM86 °FScattered clouds.7 mph59%29.86 "HgN/A
9:50 AM86 °FScattered clouds.3 mph59%29.86 "HgN/A
9:20 AM84 °FScattered clouds.2 mph66%29.86 "HgN/A
Weather by CustomWeather, © 2016

See weather overviewHow to use our weather pages